Starlink 36487

operational
NORAD ID: 67416 Int'l Des: 2026-005 Owner: SPXS Country: US Constellation: starlink
LEOCIRCULAR

Über Starlink 36487

Beschreibung wird geladen...

Live-Position

3D-Globus wird geladen...

Nächste Überflüge

Höhenverlauf

Altitude vs Time

uPlot chart will show altitude changes over time

Zweizeiliger Elementsatz

1 67416U 26005N 26062.50001156 .00064257 00000-0 22672-2 0 9996
2 67416 42.9983 273.2726 0001653 262.9168 183.2578 15.28395465 5815
Epoch: 3. März 2026 • Age: 23 hours

Aktueller Status

Höhe 482.5 km
Geschwindigkeit 7.63 km/s
Subsatellitenpunkt 33.01°N, 170.34°E
Startdatum 12. Jan. 2026
Alter 0.1 years
Typ internet

Technische Details

Klassifizierung Payload
Masse 575.00 kg
Trockenmasse 530.00 kg
Gesamtmasse 575.00 kg
Länge 0.30 m
Durchmesser 4.10 m
Spannweite 29.00 m
Form Box + pan
Hersteller SPXS
Bus-Typ Starlink V2MO
Phasenstatus In Orbit
Besitzer/Staat SPXS/US

Große Konstellationen

Loading constellations...